Simultaneous Nadir Overpasses (SNOs) Predictions

Prediction of SNOs between NPP and TERRA Satellite Orbit:

Table of predicted SNOs for the next 14.0 days since TLE Epoch: 9/26/2020
Index Date (NPP) Time (NPP) Lat,Lon (NPP) SZA (NPP ) Date (TERRA) Time (TERRA) Lat,Lon (TERRA) SZA (TERRA ) Distance(km) Time Diff (sec)
1 09/26/2020 10:39:28 -68.41,-161.18 110.19 09/26/2020 10:40:17 -68.41,-161.23 110.19 2.30 49
2 09/26/2020 11:30:12 68.29, 6.28 69.71 09/26/2020 11:29:44 68.30, 6.28 69.71 0.70 28
3 09/26/2020 12:20:37 -67.29, 174.83 111.28 09/26/2020 12:19:29 -67.35, 172.82 111.23 86.48 68
4 09/29/2020 02:05:55 69.34, 146.01 71.77 09/29/2020 02:07:02 69.25, 148.07 71.69 81.48 67
5 09/29/2020 02:56:21 -68.39, -45.38 109.17 09/29/2020 02:56:46 -68.36, -45.41 109.20 3.30 25
6 09/29/2020 03:47:05 68.27, 122.07 70.74 09/29/2020 03:46:13 68.25, 122.10 70.71 3.04 52
7 10/01/2020 18:22:34 68.52, -97.10 71.99 10/01/2020 18:23:44 68.53, -96.96 72.00 5.70 70
8 10/01/2020 19:13:14 -68.32, 70.48 108.20 10/01/2020 19:13:16 -68.31, 70.41 108.21 2.81 2
9 10/01/2020 20:03:56 68.10,-121.93 71.60 10/01/2020 20:02:44 68.14,-122.15 71.64 10.25 72
10 10/04/2020 10:39:26 68.40, 18.82 72.91 10/04/2020 10:40:15 68.42, 18.78 72.93 2.68 49
11 10/04/2020 11:30:08 -68.30,-173.73 107.18 10/04/2020 11:29:45 -68.32,-173.71 107.17 2.12 23
12 10/04/2020 12:20:35 67.27, -5.16 71.82 10/04/2020 12:19:28 67.30, -7.23 71.82 89.02 67
13 10/07/2020 02:05:55 -69.50, -34.23 104.98 10/07/2020 02:07:01 -69.42, -31.71 105.03 98.58 66
14 10/07/2020 02:56:20 68.38, 134.61 73.92 10/07/2020 02:56:45 68.36, 134.59 73.90 3.31 25
15 10/07/2020 03:47:02 -68.28, -57.95 106.17 10/07/2020 03:46:15 -68.26, -57.90 106.19 3.32 47
16 10/09/2020 18:22:32 -68.64, 82.73 104.82 10/09/2020 18:23:44 -68.59, 83.10 104.87 15.88 72
17 10/09/2020 19:13:12 68.32,-109.54 74.88 10/09/2020 19:13:13 68.35,-109.54 74.91 3.45 1
18 10/09/2020 20:03:54 -68.22, 57.91 105.21 10/09/2020 20:02:44 -68.20, 57.91 105.23 1.71 70
